Flag for Portugal Weather past 2 weeks in Setúbal, Portugal

Now
72 °F

Passing clouds.


Feels Like: 72 °F
Forecast: 63 / 82 °F
Wind: 9 mph from North

Location: Lisbon Portela Airport

Current Time: Aug 28, 2014 at 9:07:18 AM

Latest Report: Aug 28, 2014 at 8:30 AM


Visibility: N/A

Pressure: 30.07 "Hg

Humidity: 78%

Dew point: 64 °F

Location of SetúbalLocation

Historic Weather in Setúbal — Graph

°F

Setúbal temperature yesterday

Maximum temperature yesterday: 84 °F (at 1:30 PM)
Minimum temperature yesterday: 66 °F (at 6:00 AM)
Average temperature yesterday: 74 °F

Past Weeks' High & Low Weather Summary

 TemperatureHumidityPressure
High90 °F (Aug 17, 5:00 PM)94% (Aug 20, 6:00 AM)30.12 "Hg (Aug 20, 6:00 AM)
Low59 °F (Aug 25, 4:00 AM)25% (Aug 17, 6:30 PM)29.83 "Hg (Aug 17, 8:00 PM)
Average70 °F65%30.04 "Hg
* Reported Aug 13 8:00 AM — Aug 28 8:00 AM, Setúbal, Weather by CustomWeather, © 2014

Note: Actual official high and low records may vary slightly from our data, if they occured in-between our weather recording intervals... More about our weather records

Advertising

Setúbal weather history for previous 24 hours

 ConditionsComfort  
Time TempWeatherWind HumidityBarometerVisibility
8:00 AM
Aug 28
72 °FPassing clouds.8 mph78%30.04 "HgN/A
7:30 AM70 °FPassing clouds.6 mph88%30.04 "HgN/A
7:00 AM70 °FPassing clouds.6 mph83%30.04 "HgN/A
6:30 AM70 °FPassing clouds.5 mph88%30.04 "HgN/A
6:00 AM70 °FPassing clouds.6 mph88%30.04 "HgN/A
5:30 AM70 °FPartly cloudy.3 mph88%30.04 "HgN/A
5:00 AM70 °FPartly cloudy.1 mph88%30.04 "HgN/A
4:30 AM68 °FPassing clouds.5 mph94%30.04 "HgN/A
4:00 AM70 °FPassing clouds.5 mph83%30.04 "HgN/A
3:30 AM70 °FPassing clouds.8 mph88%30.04 "HgN/A
3:00 AM70 °FPassing clouds.8 mph88%30.07 "HgN/A
2:30 AM70 °FPassing clouds.12 mph88%30.07 "HgN/A
2:00 AM70 °FPassing clouds.10 mph88%30.07 "HgN/A
1:30 AM70 °FPassing clouds.12 mph88%30.07 "HgN/A
1:00 AM70 °FPassing clouds.14 mph88%30.07 "HgN/A
12:30 AM70 °FPassing clouds.10 mph83%30.07 "HgN/A
12:00 AM70 °FPassing clouds.8 mph83%30.07 "HgN/A
11:30 PM
Aug 27
70 °FPassing clouds.12 mph83%30.07 "HgN/A
11:00 PM70 °FPassing clouds.12 mph83%30.07 "HgN/A
10:30 PM70 °FPassing clouds.13 mph83%30.07 "HgN/A
10:00 PM70 °FClear.14 mph83%30.07 "Hg10 mi
9:00 PM72 °FSunny.12 mph73%30.04 "Hg10 mi
8:30 PM72 °FSunny.16 mph73%30.04 "Hg10 mi
8:00 PM73 °FSunny.16 mph69%30.04 "Hg10 mi
7:30 PM77 °FSunny.16 mph57%30.04 "Hg10 mi
6:30 PM81 °FPassing clouds.12 mph48%30.04 "HgN/A
6:00 PM82 °FPassing clouds.14 mph42%30.01 "HgN/A
5:00 PM82 °FPassing clouds.12 mph45%30.04 "HgN/A
3:30 PM84 °FPassing clouds.12 mph40%30.04 "HgN/A
3:00 PM84 °FPassing clouds.12 mph43%30.04 "HgN/A
2:30 PM84 °FPassing clouds.12 mph43%30.04 "HgN/A
2:00 PM84 °FSunny.13 mph37%30.07 "Hg10 mi
1:30 PM84 °FPassing clouds.9 mph43%30.07 "HgN/A
1:00 PM82 °FPassing clouds.9 mph48%30.07 "HgN/A
12:30 PM81 °FPassing clouds.10 mph54%30.07 "HgN/A
12:00 PM81 °FPassing clouds.10 mph54%30.07 "HgN/A
11:30 AM79 °FPassing clouds.12 mph61%30.07 "HgN/A
11:00 AM77 °FPassing clouds.12 mph65%30.07 "HgN/A
10:30 AM77 °FPassing clouds.9 mph65%30.07 "HgN/A
10:00 AM75 °FPassing clouds.13 mph69%30.07 "HgN/A
9:30 AM73 °FPassing clouds.10 mph78%30.07 "HgN/A
9:00 AM70 °FPassing clouds.13 mph83%30.07 "HgN/A
Weather by CustomWeather, © 2014

See weather overviewHow to use our weather pages